Regional Weather Roundup
Issued by NWS

Home | Current Version | Previous Version | Text Only | Print | Product List | Glossary Off
Versions: 1 2 3 4 5 6 7 8 9 10 11 12 13 14 15 16 17 18 19 20 21 22 23 24 25 26 27 28 29 30 31 32 33 34 35 36 37 38 39 40 41 42 43 44 45 46 47 48 49 50

000
ASUS44 KMEG 122000
RWRTN
TENNESSEE HOURLY STATE WEATHER ROUNDUP
NATIONAL WEATHER SERVICE MEMPHIS TN
300 PM CDT SAT JUL 12 2014

TNZ002-004-019-021-049-052-054-088>092-122100-
WEST TENNESSEE

CITY           SKY/WX    TMP DP  RH WIND       PRES   REMARKS
MEMPHIS INTL   PTSUNNY   92  70  48 SE6       30.13F HX  97
NWS MEMPHIS      N/A     92 N/A N/A MISG        N/A
JACKSON        MOSUNNY   90  67  46 CALM      30.15F HX  93
DYERSBURG      PTSUNNY   90  64  43 CALM      30.13F HX  91
UNION CITY     SUNNY     90  72  55 S7        30.12F HX  96
PARIS          SUNNY     90  70  51 SW3       30.16S HX  95
LEXINGTON      MOSUNNY   90  68  48 CALM      30.16R HX  93
SAVANNAH       SUNNY     91  70  49 CALM      30.16S HX  97
$$

TNZ008-025-027-028-033-062-065-066-122100-
NORTH MIDDLE TENNESSEE

CITY           SKY/WX    TMP DP  RH WIND       PRES   REMARKS
NASHVILLE      PTSUNNY   92  63  38 NE6       30.15F HX  93
CLARKSVILLE    PTSUNNY   91  64  40 VRB3      30.14F HX  92
COOKEVILLE     SUNNY     91  64  40 CALM      30.19S HX  93
CROSSVILLE     PTSUNNY   85  58  39 CALM      30.24F
$$

TNZ061-075-076-078-094-096-097-122100-
SOUTH MIDDLE TENNESSEE

CITY           SKY/WX    TMP DP  RH WIND       PRES   REMARKS
FAYETTEVILLE   SUNNY     90  66  45 SE6       30.17F HX  92
TULLAHOMA      SUNNY     90  63  40 CALM      30.18F HX  90
WINCHESTER     MOSUNNY   91  66  43 S3        30.17F HX  94
MCMINNVILLE    SUNNY     91  66  43 CALM      30.18F HX  94
COLUMBIA       SUNNY     91  66  43 VRB5      30.15S HX  94
SHELBYVILLE    SUNNY     93  66  40 CALM      30.17F HX  96
$$

TNZ017-018-042-046-047-122100-
NORTHEAST TENNESSEE

CITY           SKY/WX    TMP DP  RH WIND       PRES   REMARKS
TRI CITIES     MOSUNNY   89  60  37 SW10      30.20F
ELIZABETHTON   MOCLDY    79  68  69 CALM      30.22F
$$

TNZ012-013-036-069-073-074-122100-
CENTRAL EAST TENNESSEE

CITY           SKY/WX    TMP DP  RH WIND       PRES   REMARKS
KNOXVILLE      MOSUNNY   89  67  47 W7        30.17F HX  92
OAK RIDGE      MOSUNNY   93  66  40 CALM      30.19F HX  96
GATLINBURG     CLEAR     84  68  58 S7        30.18F
$$

TNZ083-085-099-122100-
SOUTHEAST TENNESSEE

CITY           SKY/WX    TMP DP  RH WIND       PRES   REMARKS
CHATTANOOGA    PTSUNNY   91  67  44 VRB6      30.16F HX  94
$$

SKY/WX REPORTED AS FAIR MEANS FEW OR NO CLOUDS BELOW
12 THOUSAND FEET.




USA.gov is the U.S. government's official web portal to all federal, state and local government web resources and services.